Stations météo

réclame
Mon MeteoGroup
Ristem, Suède (2013): Température de l'air & dewpoint: 11.10.2018 05:00:00 - 17.10.2018 05:00:00 (CEST)Ristem, Suède (2013): Vitesse du vent & gusts: 11.10.2018 05:00:00 - 17.10.2018 05:00:00 (CEST)Ristem, Suède (2013): Direction du vent: 11.10.2018 05:00:00 - 17.10.2018 05:00:00 (CEST)Ristem, Suède (2013): reduced air pressure: 11.10.2018 05:00:00 - 17.10.2018 05:00:00 (CEST)Ristem, Suède (2013): visibility: 11.10.2018 05:00:00 - 17.10.2018 05:00:00 (CEST)Ristem, Suède (2013): Quantités de précipitations: 11.10.2018 05:00:00 - 17.10.2018 05:00:00 (CEST)
Date & Time tt [°C] td [°C] ff [km/h] ff [knt] fx [km/h] fx [knt] dd ppp [hPa] vv [km] rr [mm]
17.10.2018 05:00:00 - - - - - - - - - -
17.10.2018 04:00:00 4,5 0,1 4 2 16 8 S 1009,4 50 0,0
17.10.2018 03:00:00 5,2 -1,7 5 3 18 10 ESE 1010,2 50 0,0
17.10.2018 02:00:00 3,8 -1,0 4 2 18 10 ESE 1011,3 50 0,0
17.10.2018 01:00:00 3,8 -0,6 6 3 14 8 S 1012,8 50 0,0
17.10.2018 00:00:00 2,8 0,5 4 2 14 8 SW 1013,1 50 0,0
16.10.2018 23:00:00 3,2 -0,8 4 2 11 6 E 1013,8 50 0,0
16.10.2018 22:00:00 3,2 0,6 3 2 15 8 SE 1014,2 50 0,0
16.10.2018 21:00:00 4,1 0,1 7 4 22 12 SSE 1014,6 50 0,0
16.10.2018 20:00:00 4,2 0,7 9 5 22 12 S 1014,6 50 0,0
16.10.2018 19:00:00 4,1 0,6 8 4 21 12 SSW 1014,5 50 0,0
16.10.2018 18:00:00 4,0 0,5 9 5 22 12 SW 1014,6 50 0,0
16.10.2018 17:00:00 3,5 0,5 5 3 23 12 WSW 1014,6 50 0,0
16.10.2018 16:00:00 - - - - 24 13 - - - -
16.10.2018 15:00:00 - - - - 26 14 - - - -
16.10.2018 14:00:00 - - - - 26 14 - - - -
16.10.2018 13:00:00 - - - - - - - - - -
16.10.2018 12:00:00 - - - - - - - - - -
16.10.2018 11:00:00 4,4 0,9 13 7 38 21 SSW 1011,3 50 0,0
16.10.2018 10:00:00 4,0 0,9 17 9 38 21 SW 1010,7 50 0,0
16.10.2018 09:00:00 3,8 0,3 19 10 33 18 WSW 1010,3 50 0,0
16.10.2018 08:00:00 3,0 0,6 16 8 32 18 WSW 1010,4 50 0,0
16.10.2018 07:00:00 3,9 -1,3 12 7 26 14 W 1009,5 50 0,0
16.10.2018 06:00:00 3,8 -1,8 7 4 26 14 SW 1009,2 50 0,0
16.10.2018 05:00:00 4,0 -1,8 13 7 23 13 SW 1009,4 50 0,0
16.10.2018 04:00:00 2,3 -0,5 2 1 12 6 NW 1010,3 50 0,0
16.10.2018 03:00:00 2,8 -0,5 4 2 9 5 W 1010,2 50 0,0
16.10.2018 02:00:00 3,0 -0,6 5 3 8 5 NNE 1010,6 50 0,0
16.10.2018 01:00:00 2,6 -0,3 0 0 7 4 N 1010,8 50 0,0
16.10.2018 00:00:00 3,0 -0,5 3 1 10 5 NNE 1011,1 50 0,0
15.10.2018 23:00:00 3,8 -0,8 2 1 10 5 SE 1011,1 50 0,0
15.10.2018 22:00:00 3,3 0,2 3 2 14 7 ENE 1011,4 50 0,0
15.10.2018 21:00:00 3,4 0,3 3 1 14 7 NE 1011,5 50 0,0
15.10.2018 20:00:00 3,6 0,6 4 2 23 12 N 1011,9 50 0,0
15.10.2018 19:00:00 4,2 0,3 8 4 23 12 W 1011,5 50 0,0
15.10.2018 18:00:00 4,3 0,3 6 4 25 14 SW 1011,8 50 0,0
15.10.2018 17:00:00 4,5 0,6 8 4 25 14 SSW 1012,1 50 0,0
15.10.2018 16:00:00 4,6 1,1 10 5 21 12 SSW 1011,9 50 0,0
15.10.2018 15:00:00 4,4 1,4 8 5 22 12 S 1011,5 50 0,0
15.10.2018 14:00:00 4,4 1,1 8 4 22 12 SW 1011,4 50 0,0
15.10.2018 13:00:00 4,8 0,9 6 3 12 7 SW 1011,1 50 0,0
15.10.2018 12:00:00 4,2 1,6 3 2 13 7 ESE 1010,7 50 0,0
15.10.2018 11:00:00 3,8 1,3 5 3 16 9 WSW 1010,0 50 0,0
15.10.2018 10:00:00 3,5 0,7 10 5 19 11 NNW 1008,9 50 0,0
15.10.2018 09:00:00 3,1 1,3 3 2 27 15 E 1008,1 50 0,0
15.10.2018 08:00:00 3,1 1,0 11 6 30 16 WNW 1007,2 50 0,0
15.10.2018 07:00:00 3,0 1,2 11 6 34 18 NW 1006,6 50 0,0
15.10.2018 06:00:00 3,5 1,7 11 6 34 18 WNW 1005,9 19 0,4
15.10.2018 05:00:00 4,3 2,6 16 9 29 16 WNW 1004,1 9 0,1
15.10.2018 04:00:00 5,4 3,6 13 7 27 15 WNW 1002,5 26 0,6
15.10.2018 03:00:00 7,5 5,6 12 6 24 13 W 1000,3 26 0,3
15.10.2018 02:00:00 7,6 5,7 3 2 23 12 W 999,6 13 0,5
15.10.2018 01:00:00 9,2 5,9 13 7 22 12 SW 999,0 50 0,0
15.10.2018 00:00:00 9,4 5,6 9 5 21 11 SW 999,2 44 0,0
14.10.2018 23:00:00 10,0 6,9 7 4 13 7 WNW 998,9 50 0,0
14.10.2018 22:00:00 9,2 8,1 4 2 18 10 SE 998,7 50 0,0
14.10.2018 21:00:00 8,7 7,9 9 5 18 10 NNE 999,6 50 0,1
14.10.2018 20:00:00 9,2 8,7 5 3 17 9 E 999,4 0,9 2,1
14.10.2018 19:00:00 9,4 8,8 9 5 14 8 N 998,5 6 1,9
14.10.2018 18:00:00 10,2 9,4 3 2 18 10 WNW 999,0 6 0,9
14.10.2018 17:00:00 10,6 9,4 9 5 18 10 WNW 999,2 6 0,2
14.10.2018 16:00:00 10,6 9,2 6 3 19 10 WNW 999,9 8 0,0
14.10.2018 15:00:00 11,4 8,3 7 4 19 10 NW 999,6 12 0,0
14.10.2018 14:00:00 12,6 8,1 9 5 22 12 W 998,9 50 0,0
14.10.2018 13:00:00 11,6 7,5 5 3 22 12 NNE 999,3 50 0,0
14.10.2018 12:00:00 10,6 7,3 6 3 19 10 E 998,9 50 0,0
14.10.2018 11:00:00 7,1 5,2 8 4 20 11 N 1000,2 50 0,0
14.10.2018 10:00:00 5,8 4,4 12 6 24 13 N 1001,4 16 0,0
14.10.2018 09:00:00 5,7 4,3 8 5 24 13 NE 1002,1 50 0,0
14.10.2018 08:00:00 5,3 4,3 3 2 18 10 ENE 1003,0 50 0,0
14.10.2018 07:00:00 5,0 3,8 11 6 16 9 NNE 1003,7 13 0,0
14.10.2018 06:00:00 4,4 3,4 11 6 20 11 NNE 1004,5 50 0,0
14.10.2018 05:00:00 4,7 3,7 13 7 20 11 NNE 1005,5 9 0,0
14.10.2018 04:00:00 4,8 3,8 12 6 14 8 NNE 1005,6 22 0,1
14.10.2018 03:00:00 5,1 4,1 10 5 12 6 NNE 1006,4 8 0,2
14.10.2018 02:00:00 6,2 4,8 3 2 23 12 NE 1006,2 7 0,2
14.10.2018 01:00:00 7,0 4,3 3 2 31 17 SSE 1006,0 35 0,0
14.10.2018 00:00:00 8,6 3,6 17 9 31 17 WSW 1005,3 50 0,0
13.10.2018 23:00:00 9,0 3,8 11 6 22 12 W 1005,7 50 0,0
13.10.2018 22:00:00 9,6 3,6 6 3 18 10 W 1005,5 50 0,0
13.10.2018 21:00:00 8,7 4,7 8 4 18 10 NW 1006,1 50 0,0
13.10.2018 20:00:00 5,8 3,8 6 3 14 8 SE 1006,9 50 0,0
13.10.2018 19:00:00 6,9 4,4 4 2 15 8 N 1007,0 48 0,0
13.10.2018 18:00:00 5,7 3,0 8 4 15 8 N 1006,8 50 0,0
13.10.2018 17:00:00 5,5 4,0 7 4 19 11 N 1006,9 50 0,0
13.10.2018 16:00:00 6,5 3,6 8 4 22 12 N 1006,4 50 0,0
13.10.2018 15:00:00 5,5 2,7 13 7 22 12 NNE 1006,2 50 0,0
13.10.2018 14:00:00 5,9 3,8 4 2 18 10 WNW 1007,0 50 0,0
13.10.2018 13:00:00 5,9 3,4 3 2 18 10 SW 1006,2 50 0,0
13.10.2018 12:00:00 6,4 3,2 5 3 20 11 E 1005,2 47 0,0
13.10.2018 11:00:00 5,7 3,0 4 2 26 14 S 1005,2 50 0,0
13.10.2018 10:00:00 5,2 3,2 14 8 30 16 ESE 1005,6 50 0,0
13.10.2018 09:00:00 5,0 2,9 14 8 30 16 ESE 1005,9 50 0,0
13.10.2018 08:00:00 5,4 2,6 6 3 30 16 ESE 1005,2 50 0,0
13.10.2018 07:00:00 4,9 2,6 8 4 19 10 SW 1005,2 50 0,0
13.10.2018 06:00:00 3,8 1,7 9 5 19 10 W 1006,6 50 0,0
13.10.2018 05:00:00 2,1 0,2 11 6 38 20 NNE 1007,7 50 0,0
13.10.2018 04:00:00 3,4 1,0 5 3 39 21 S 1009,0 50 0,0
13.10.2018 03:00:00 3,7 1,7 18 10 31 17 SE 1010,2 50 0,0
13.10.2018 02:00:00 3,5 1,2 16 8 31 17 ESE 1010,7 50 0,0
13.10.2018 01:00:00 3,7 1,4 13 7 35 19 SE 1011,0 50 0,0
13.10.2018 00:00:00 3,9 1,3 13 7 40 22 ESE 1011,8 50 0,0
12.10.2018 23:00:00 4,1 2,1 13 7 40 22 ESE 1012,7 50 0,0
12.10.2018 22:00:00 4,4 2,4 15 8 35 19 SE 1013,0 50 0,0
12.10.2018 21:00:00 4,5 2,8 9 5 33 18 SSE 1013,2 50 0,0
12.10.2018 20:00:00 4,7 3,0 13 7 33 18 SE 1013,3 50 0,0
12.10.2018 19:00:00 5,2 2,7 8 4 44 24 SE 1013,6 50 0,0
12.10.2018 18:00:00 5,2 3,7 14 8 44 24 SE 1014,4 50 0,0
12.10.2018 17:00:00 5,5 3,8 19 10 41 22 ESE 1015,1 50 0,0
12.10.2018 16:00:00 7,4 4,0 14 8 39 21 SE 1015,0 50 0,0
12.10.2018 15:00:00 8,0 4,2 17 9 37 20 SE 1015,0 50 0,0
12.10.2018 14:00:00 8,3 4,7 14 8 32 17 SSE 1015,6 50 0,0
12.10.2018 13:00:00 8,1 4,7 15 8 33 18 SE 1016,5 50 0,0
12.10.2018 12:00:00 7,8 4,9 18 10 33 18 SE 1017,2 50 0,0
12.10.2018 11:00:00 6,5 4,3 12 6 27 15 SSE 1018,0 50 0,0
12.10.2018 10:00:00 5,8 4,1 14 7 30 16 SSE 1018,2 50 0,0
12.10.2018 09:00:00 5,8 3,5 6 3 30 16 SSE 1018,2 50 0,0
12.10.2018 08:00:00 5,0 3,0 8 5 23 13 SE 1018,1 50 0,0
12.10.2018 07:00:00 4,7 3,2 6 3 16 8 SSE 1017,7 50 0,0
12.10.2018 06:00:00 3,7 2,7 3 2 20 11 SSE 1018,2 50 0,0
12.10.2018 05:00:00 3,3 2,0 3 2 27 15 ENE 1018,8 50 0,0
12.10.2018 04:00:00 3,9 2,1 6 3 27 15 N 1018,8 50 0,0
12.10.2018 03:00:00 3,8 1,8 14 8 23 12 NNE 1019,0 50 0,0
12.10.2018 02:00:00 4,1 2,0 10 5 19 10 NE 1020,1 50 0,0
12.10.2018 01:00:00 3,7 2,1 11 6 19 10 NNE 1020,5 50 0,0
12.10.2018 00:00:00 4,3 2,2 13 7 17 9 NNE 1020,5 50 0,0
11.10.2018 23:00:00 4,4 2,4 9 5 15 8 N 1020,9 50 0,0
11.10.2018 22:00:00 4,8 2,8 10 5 19 10 NNE 1020,9 50 0,0
11.10.2018 21:00:00 4,7 2,7 6 3 19 10 N 1021,1 50 0,0
11.10.2018 20:00:00 4,4 3,2 3 2 17 9 W 1021,5 50 0,0
11.10.2018 19:00:00 4,4 2,7 13 7 17 9 N 1021,5 50 0,0
11.10.2018 18:00:00 4,6 3,3 5 3 8 5 NNW 1021,4 50 0,0
11.10.2018 17:00:00 4,9 4,0 4 2 9 5 WNW 1021,3 50 0,0
11.10.2018 16:00:00 5,0 4,3 4 2 12 6 NW 1021,4 50 0,0
11.10.2018 15:00:00 5,6 4,2 4 2 12 6 NNW 1021,4 21 0,0
11.10.2018 14:00:00 4,3 3,3 4 2 11 6 N 1021,8 10 0,0
11.10.2018 13:00:00 4,1 2,9 8 5 11 6 NNW 1021,7 16 0,0
11.10.2018 12:00:00 3,8 2,8 3 2 9 5 NW 1021,9 5 0,1
11.10.2018 11:00:00 3,7 2,1 3 2 20 11 W 1021,8 22 0,1
11.10.2018 10:00:00 3,5 2,5 2 1 20 11 NW 1021,7 9 0,1
11.10.2018 09:00:00 3,8 2,0 7 4 - - SE 1021,3 17 -
11.10.2018 08:00:00 3,7 1,6 4 2 9 5 WNW 1020,8 32 0,0
11.10.2018 07:00:00 3,3 1,5 0 0 21 12 N 1020,8 12 0,0
11.10.2018 06:00:00 3,9 1,4 4 2 21 12 SSE 1020,5 50 0,0
11.10.2018 05:00:00 4,0 1,4 6 3 18 10 WSW 1020,6 50 0,0

tt = Température de l'air
td = dewpoint
ff = Vitesse du vent
fx = gusts
dd = Direction du vent
ppp = reduced air pressure
vv = visibility
rr = Quantités de précipitations

stations d'obs. à proximité